TimePDT,TemperatureF,Dew PointF,Humidity,Sea Level PressureIn,VisibilityMPH,Wind Direction,Wind SpeedMPH,Gust SpeedMPH,PrecipitationIn,Events,Conditions,WindDirDegrees,DateUTC
12:09 AM,57.0,55.9,96,29.75,1.5,Calm,Calm,-,N/A,,Partly Cloudy,0,2013-09-15 07:09:00
12:12 AM,57.0,55.9,96,29.75,1.0,Calm,Calm,-,N/A,,Mist,0,2013-09-15 07:12:00
12:16 AM,57.0,55.9,96,29.75,0.2,Calm,Calm,-,N/A,Fog,Fog,0,2013-09-15 07:16:00
12:29 AM,54.0,54.0,100,29.74,1.0,Calm,Calm,-,N/A,,Mist,0,2013-09-15 07:29:00
12:31 AM,55.0,55.0,100,29.74,2.5,Calm,Calm,-,N/A,,Scattered Clouds,0,2013-09-15 07:31:00
12:38 AM,55.9,55.0,97,29.74,6.0,Calm,Calm,-,N/A,,Scattered Clouds,0,2013-09-15 07:38:00
12:54 AM,55.9,55.0,97,29.74,5.0,Calm,Calm,-,N/A,,Clear,0,2013-09-15 07:54:00
1:09 AM,54.0,54.0,100,29.74,1.5,Calm,Calm,-,N/A,,Clear,0,2013-09-15 08:09:00
1:11 AM,54.0,54.0,100,29.74,0.8,Calm,Calm,-,N/A,,Mist,0,2013-09-15 08:11:00
1:19 AM,54.0,53.1,97,29.74,0.2,Calm,Calm,-,N/A,Fog,Fog,0,2013-09-15 08:19:00
1:32 AM,55.0,54.0,96,29.74,1.0,Calm,Calm,-,N/A,,Mist,0,2013-09-15 08:32:00
1:42 AM,54.0,54.0,100,29.74,0.2,Calm,Calm,-,N/A,Fog,Fog,0,2013-09-15 08:42:00
1:54 AM,54.0,54.0,100,29.74,0.2,Calm,Calm,-,N/A,Fog,Fog,0,2013-09-15 08:54:00
2:54 AM,55.0,55.0,100,29.74,0.8,Calm,Calm,-,N/A,,Mist,0,2013-09-15 09:54:00
2:57 AM,55.0,55.0,100,29.74,1.5,Calm,Calm,-,N/A,,Overcast,0,2013-09-15 09:57:00
3:04 AM,55.0,55.0,100,29.74,0.8,Calm,Calm,-,N/A,,Mist,0,2013-09-15 10:04:00
3:15 AM,55.9,55.0,97,29.74,0.2,Calm,Calm,-,N/A,Fog,Fog,0,2013-09-15 10:15:00
3:54 AM,55.9,55.9,100,29.74,0.2,Calm,Calm,-,N/A,Fog,Fog,0,2013-09-15 10:54:00
4:20 AM,57.0,55.9,96,29.74,0.8,Calm,Calm,-,N/A,,Mist,0,2013-09-15 11:20:00
4:40 AM,57.0,57.0,100,29.74,0.2,Calm,Calm,-,N/A,Fog,Fog,0,2013-09-15 11:40:00
4:47 AM,57.0,57.0,100,29.74,0.5,Calm,Calm,-,N/A,Fog,Fog,0,2013-09-15 11:47:00
4:54 AM,57.0,57.0,100,29.74,0.5,Calm,Calm,-,N/A,Fog,Fog,0,2013-09-15 11:54:00
5:13 AM,57.0,57.0,100,29.74,1.5,Calm,Calm,-,N/A,,Overcast,0,2013-09-15 12:13:00
5:21 AM,57.0,57.0,100,29.74,1.0,Calm,Calm,-,N/A,,Overcast,0,2013-09-15 12:21:00
5:28 AM,57.0,55.9,96,29.74,0.5,Calm,Calm,-,N/A,Fog,Fog,0,2013-09-15 12:28:00
5:45 AM,57.0,57.0,100,29.73,1.5,Calm,Calm,-,N/A,,Overcast,0,2013-09-15 12:45:00
5:51 AM,57.2,57.2,100,29.73,3.0,Calm,Calm,-,N/A,,Overcast,0,2013-09-15 12:51:00
5:54 AM,57.9,57.0,97,29.73,3.0,Calm,Calm,-,N/A,,Overcast,0,2013-09-15 12:54:00
6:54 AM,57.9,57.0,97,29.74,4.0,Calm,Calm,-,N/A,,Overcast,0,2013-09-15 13:54:00
7:08 AM,57.9,57.0,97,29.74,1.8,Calm,Calm,-,N/A,,Overcast,0,2013-09-15 14:08:00
7:12 AM,57.9,57.0,97,29.74,0.8,Calm,Calm,-,N/A,,Overcast,0,2013-09-15 14:12:00
7:23 AM,57.9,57.0,97,29.74,0.2,Calm,Calm,-,N/A,Fog,Fog,0,2013-09-15 14:23:00
7:43 AM,57.9,57.9,100,29.74,0.5,Calm,Calm,-,N/A,Fog,Fog,0,2013-09-15 14:43:00
7:54 AM,57.9,57.9,100,29.75,0.8,Calm,Calm,-,N/A,,Overcast,0,2013-09-15 14:54:00
8:01 AM,57.9,57.9,100,29.74,1.0,Calm,Calm,-,N/A,,Overcast,0,2013-09-15 15:01:00
8:13 AM,57.9,57.9,100,29.75,1.0,Calm,Calm,-,N/A,,Overcast,0,2013-09-15 15:13:00
8:20 AM,57.9,57.9,100,29.75,2.0,Calm,Calm,-,N/A,,Overcast,0,2013-09-15 15:20:00
8:34 AM,59.0,57.9,96,29.75,2.0,Calm,Calm,-,N/A,,Overcast,0,2013-09-15 15:34:00
8:54 AM,59.0,57.9,96,29.73,3.0,NNW,3.5,-,0.00,Rain,Light Rain,340,2013-09-15 15:54:00
9:54 AM,60.1,59.0,96,29.76,7.0,SSW,3.5,-,0.03,Rain,Light Rain,200,2013-09-15 16:54:00
10:18 AM,60.1,59.0,96,29.76,8.0,SW,6.9,-,0.00,,Overcast,220,2013-09-15 17:18:00
10:31 AM,61.0,59.0,93,29.76,8.0,Variable,5.8,-,0.00,,Overcast,0,2013-09-15 17:31:00
10:54 AM,62.1,61.0,96,29.76,10.0,SSW,6.9,-,0.00,,Mostly Cloudy,200,2013-09-15 17:54:00
11:54 AM,64.0,60.1,87,29.77,10.0,SSW,6.9,-,0.00,Rain,Light Rain,210,2013-09-15 18:54:00
12:54 PM,63.0,60.1,90,29.78,10.0,SW,8.1,-,0.00,,Overcast,220,2013-09-15 19:54:00
1:06 PM,63.0,60.1,90,29.78,10.0,SW,5.8,-,N/A,Thunderstorm,Overcast,230,2013-09-15 20:06:00
1:32 PM,63.0,59.0,87,29.78,10.0,West,8.1,-,N/A,,Overcast,260,2013-09-15 20:32:00
1:54 PM,63.0,59.0,87,29.78,10.0,SW,6.9,-,N/A,,Mostly Cloudy,220,2013-09-15 20:54:00
2:34 PM,64.0,59.0,84,29.78,10.0,SW,9.2,-,N/A,Thunderstorm,Mostly Cloudy,230,2013-09-15 21:34:00
2:35 PM,64.0,59.0,84,29.78,10.0,WSW,8.1,-,N/A,Thunderstorm,Mostly Cloudy,240,2013-09-15 21:35:00
2:54 PM,64.9,60.1,84,29.78,10.0,SW,9.2,-,0.00,Rain-Thunderstorm,Light Rain,220,2013-09-15 21:54:00
3:18 PM,64.0,60.1,87,29.78,10.0,SW,9.2,-,0.00,,Mostly Cloudy,220,2013-09-15 22:18:00
3:54 PM,64.0,59.0,84,29.78,10.0,SSW,6.9,-,0.00,,Mostly Cloudy,210,2013-09-15 22:54:00
4:49 PM,64.4,60.8,88,29.80,10.0,SSW,5.8,-,N/A,,Overcast,210,2013-09-15 23:49:00
4:54 PM,64.0,60.1,87,29.81,10.0,SSW,4.6,-,N/A,,Overcast,210,2013-09-15 23:54:00
5:54 PM,63.0,60.1,90,29.81,10.0,SSW,5.8,-,N/A,,Overcast,200,2013-09-16 00:54:00
6:01 PM,63.0,60.1,90,29.81,10.0,SSW,6.9,-,N/A,,Overcast,200,2013-09-16 01:01:00
6:54 PM,62.1,60.1,93,29.81,10.0,SW,4.6,-,N/A,,Mostly Cloudy,220,2013-09-16 01:54:00
7:54 PM,62.1,59.0,90,29.81,10.0,SSW,8.1,-,N/A,,Overcast,210,2013-09-16 02:54:00
8:54 PM,62.1,57.9,86,29.84,10.0,SSW,6.9,-,N/A,,Overcast,200,2013-09-16 03:54:00
9:54 PM,61.0,57.9,90,29.84,10.0,SW,6.9,-,N/A,,Overcast,230,2013-09-16 04:54:00
10:13 PM,61.0,57.9,90,29.83,10.0,SW,5.8,-,N/A,,Mostly Cloudy,220,2013-09-16 05:13:00
10:54 PM,60.1,57.0,90,29.83,10.0,SSW,8.1,-,N/A,,Clear,210,2013-09-16 05:54:00
11:54 PM,60.1,57.9,93,29.85,10.0,South,6.9,-,N/A,,Overcast,190,2013-09-16 06:54:00